User: anonymous   Login
Location: Unspecified
(0.0000°N, 0.0000°E)
Time: 15:29:24
(UTC+00:00)
Language:

Vela 6A - Orbit

View from above orbital plane
View from above orbital plane
View from above satellite
View from above satellite

Ground track
Ground track

The orbit data is extracted from the following two-line orbital elements,

1 04366U 70027A   15090.72351341  .00000251  00000-0  00000+0 0  9993
2 04366 050.2728 237.5544 6784920 083.4937 000.0004 00.21448857 28929
Epoch (UTC): 31 March 2015 17:21:51
Eccentricity: 0.6784920
inclination: 50.2728°
perigee height: 31523 km
apogee height: 191492 km
right ascension of ascending node: 237.5544°
argument of perigee: 83.4937°
revolutions per day: 0.21448857
mean anomaly at epoch: 0.0004°
orbit number at epoch: 2892

The dashed part of the orbit path shows where the satellite is in the earth's shadow,  

DLR